STARLINK-32374 (62145 NORAD) Tracking and Keplerian Element Data

This shows tracking and keplerian element data for the satellite.

Feedback or suggestion? Click here.




ElementValue
Catalog62145
NameSTARLINK-32374
Epoch Orbit1139
Epoch Day34.80985135
Epoch Year2025
RAAN257.9352
Inclination43
Eccentricity0.0001298
Argument of Perigee269.6759
Mean Anonmoly90.3946
Mean Motion15.32096288
Decay Rate8.28E-06
L11 62145U 24224G 25034.80985135 .00000828 00000+0 34849-4 0 9994
L22 62145 43.0000 257.9352 0001298 269.6759 90.3946 15.32096288 11393



Live tracking and technical data element details for STARLINK-32374 (NORAD 62145). STARLINK-32374 can be tracked NOW for your location showing map with azimuth and elevation plus other details from your city location.







IsCatalogInMostPopularTable: catalog: 62145, numindb: 21
Update: records affected: 1



GetName: 62145 STARLINK-32374

Hit Count: updated at: Sun, 18 May 2025 23:26:19 GMT